Oscoda, MI

9:16 AM EDT on June 23, 2017 (GMT -0400)
Oscoda-Wurtsmith

Weather History for KOSC - January, 2013

Change the Weather History Date:

Saturday, January 12, 2013

  Actual Average Record
Temperature  
Mean Temperature 48 °F -  
Max Temperature 58 °F 25 °F 58 °F (2013)
Min Temperature 39 °F 11 °F 1 °F (1999)
Degree Days  
Heating Degree Days 16    
Moisture  
Dew Point 36 °F    
Average Humidity 71    
Maximum Humidity 97    
Minimum Humidity 31    
Precipitation  
Precipitation 0.00 in - - ()
Sea Level Pressure  
Sea Level Pressure 29.78 in    
Wind  
Wind Speed 10 mph (SW)    
Max Wind Speed 26 mph    
Max Gust Speed 38 mph    
Visibility 8 miles    
Events Rain    
Averages and records for this station are not official NWS values.
T = Trace of Precipitation, MM = Missing Value Source: NWS Daily Summary

Daily Weather History Graph

Daily Weather History Graph

Search for Another Location

Airport or City:

Trip Planner

Search our weather history database for the weather conditions in past years. The results will help you decide how hot, cold, wet, or windy it might be!

Date:

Astronomy

Jan. 12, 2013 Rise Set
Actual Time 8:07 AM EST 5:16 PM EST
Civil Twilight 7:35 AM EST 5:49 PM EST
Nautical Twilight 6:59 AM EST 6:25 PM EST
Astronomical Twilight 6:24 AM EST 7:00 PM EST
Moon 8:21 AM EST (1/12) 6:49 PM EST (1/12)
Length of Visible Light 10h 14m
Length of Day
9h 08m
New Moon, 1% of the Moon is Illuminated
Jan 12
New Moon
Jan 18
First Quarter
Jan 26
Full
Feb 3
Last Quarter
Feb 10
New

Hourly Weather History & Observations

Time (EST) Temp. Windchill Dew Point Humidity Pressure Visibility Wind Dir Wind Speed Gust Speed Precip Events Conditions
12:13 AM 45.7 °F 42.0 °F 43.9 °F 93% 29.76 in 7.0 mi SSW 6.9 mph - N/A   Overcast
12:34 AM 45.5 °F 41.8 °F 43.7 °F 93% 29.75 in 7.0 mi South 6.9 mph - N/A   Overcast
12:54 AM 45.0 °F 41.2 °F 43.2 °F 93% 29.75 in 7.0 mi SSW 6.9 mph - N/A   Scattered Clouds
1:13 AM 44.6 °F 40.2 °F 42.8 °F 93% 29.75 in 7.0 mi SSW 8.1 mph - N/A   Scattered Clouds
1:34 AM 44.2 °F 38.8 °F 42.4 °F 93% 29.73 in 7.0 mi South 10.4 mph - N/A   Overcast
1:54 AM 44.2 °F 39.2 °F 42.3 °F 93% 29.74 in 7.0 mi South 9.2 mph - N/A   Overcast
2:13 AM 44.4 °F 38.6 °F 42.3 °F 92% 29.75 in 7.0 mi SSW 11.5 mph 18.4 mph N/A   Overcast
2:34 AM 43.7 °F 39.1 °F 41.9 °F 93% 29.76 in 7.0 mi SSW 8.1 mph - N/A   Scattered Clouds
2:54 AM 42.8 °F 37.5 °F 41.2 °F 94% 29.75 in 5.0 mi SSW 9.2 mph - N/A   Clear
3:13 AM 43.0 °F 38.8 °F 41.4 °F 94% 29.74 in 5.0 mi SSW 6.9 mph - N/A   Clear
3:34 AM 43.2 °F 38.4 °F 41.7 °F 95% 29.74 in 7.0 mi SSW 8.1 mph - N/A   Clear
3:54 AM 43.7 °F 38.6 °F 42.1 °F 94% 29.75 in 7.0 mi SSW 9.2 mph - N/A   Clear
4:13 AM 43.0 °F 38.2 °F 41.4 °F 94% 29.73 in 5.0 mi SSW 8.1 mph - N/A   Clear
4:34 AM 42.8 °F 38.6 °F 41.4 °F 95% 29.73 in 5.0 mi SSW 6.9 mph - N/A   Clear
4:54 AM 42.8 °F 37.5 °F 41.4 °F 95% 29.73 in 5.0 mi SSW 9.2 mph - N/A   Clear
5:13 AM 42.8 °F 38.0 °F 41.4 °F 95% 29.73 in 5.0 mi SSW 8.1 mph - N/A   Clear
5:34 AM 42.8 °F 37.5 °F 41.4 °F 95% 29.72 in 5.0 mi SSW 9.2 mph - N/A   Clear
5:53 AM 43.0 °F 37.2 °F 41.5 °F 95% 29.73 in 5.0 mi SSW 10.4 mph - N/A   Clear
6:14 AM 42.8 °F 37.5 °F 41.5 °F 95% 29.73 in 5.0 mi SSW 9.2 mph - N/A   Clear
6:34 AM 42.6 °F 37.2 °F 41.2 °F 95% 29.72 in 5.0 mi South 9.2 mph - N/A   Clear
6:53 AM 42.8 °F 37.0 °F 41.4 °F 95% 29.73 in 5.0 mi SSW 10.4 mph - N/A   Clear
7:14 AM 42.8 °F 37.0 °F 41.4 °F 95% 29.73 in 5.0 mi SSW 10.4 mph - N/A   Clear
7:34 AM 42.8 °F 37.5 °F 41.4 °F 95% 29.74 in 5.0 mi SSW 9.2 mph - N/A   Clear
7:53 AM 42.3 °F 37.3 °F 41.0 °F 95% 29.74 in 5.0 mi SSW 8.1 mph - N/A   Clear
8:14 AM 41.9 °F 36.3 °F 41.0 °F 97% 29.75 in 3.0 mi SSW 9.2 mph - N/A   Clear
8:34 AM 41.9 °F 36.3 °F 41.0 °F 97% 29.75 in 3.0 mi SSW 9.2 mph - N/A   Clear
8:54 AM 42.1 °F 36.6 °F 41.0 °F 96% 29.75 in 3.0 mi SSW 9.2 mph - N/A   Clear
9:14 AM 42.8 °F 37.5 °F 41.5 °F 95% 29.75 in 4.0 mi SSW 9.2 mph - N/A   Clear
9:34 AM 43.3 °F 38.1 °F 41.9 °F 95% 29.76 in 5.0 mi SSW 9.2 mph - N/A   Clear
9:53 AM 43.9 °F 38.8 °F 42.1 °F 93% 29.75 in 7.0 mi SSW 9.2 mph - N/A   Clear
10:14 AM 45.5 °F 39.9 °F 43.2 °F 92% 29.76 in 10.0 mi SSW 11.5 mph 16.1 mph N/A   Clear
10:34 AM 47.7 °F - 43.9 °F 87% 29.75 in 10.0 mi SSW 10.4 mph 19.6 mph N/A   Clear
10:54 AM 48.9 °F - 44.6 °F 85% 29.75 in 10.0 mi South 12.7 mph 18.4 mph N/A   Clear
11:14 AM 49.6 °F - 44.8 °F 83% 29.76 in 10.0 mi SSW 10.4 mph - N/A   Clear
11:34 AM 50.7 °F - 45.1 °F 81% 29.75 in 10.0 mi SSW 16.1 mph 21.9 mph N/A   Clear
11:54 AM 51.6 °F - 45.5 °F 80% 29.74 in 10.0 mi SSW 15.0 mph 19.6 mph N/A   Clear
12:14 PM 53.6 °F - 45.9 °F 75% 29.73 in 10.0 mi SW 15.0 mph 25.3 mph N/A   Clear
12:33 PM 55.4 °F - 46.2 °F 71% 29.72 in 10.0 mi SW 17.3 mph 23.0 mph N/A   Clear
12:54 PM 54.7 °F - 43.0 °F 65% 29.72 in 10.0 mi SW 17.3 mph 25.3 mph N/A   Clear
1:14 PM 55.2 °F - 42.3 °F 62% 29.72 in 10.0 mi SW 18.4 mph 26.5 mph N/A   Clear
1:33 PM 57.2 °F - 41.4 °F 55% 29.72 in 10.0 mi North - - N/A   Clear
1:54 PM 57.4 °F - 40.6 °F 54% 29.72 in 10.0 mi SW 20.7 mph 38.0 mph N/A   Clear
2:14 PM 58.1 °F - 40.1 °F 51% 29.74 in 10.0 mi North - - N/A   Clear
2:33 PM 58.3 °F - 36.3 °F 44% 29.75 in 10.0 mi North - - N/A   Clear
2:54 PM 58.1 °F - 33.6 °F 40% 29.75 in 10.0 mi North - - N/A   Clear
3:14 PM 57.7 °F - 29.5 °F 34% 29.76 in 10.0 mi WSW 26.5 mph - N/A   Clear
3:33 PM 56.3 °F - 28.4 °F 34% 29.78 in 10.0 mi SW 19.6 mph 25.3 mph N/A   Clear
3:54 PM 55.8 °F - 25.3 °F 31% 29.78 in 10.0 mi WSW 20.7 mph 29.9 mph N/A   Clear
4:14 PM 54.9 °F - 25.2 °F 32% 29.79 in 10.0 mi SW 16.1 mph 23.0 mph N/A   Clear
4:33 PM 53.6 °F - 25.0 °F 33% 29.80 in 10.0 mi SW 15.0 mph - N/A   Clear
4:54 PM 53.1 °F - 25.5 °F 34% 29.81 in 10.0 mi SW 15.0 mph - N/A   Clear
5:14 PM 51.3 °F - 25.7 °F 37% 29.81 in 10.0 mi SW 11.5 mph - N/A   Clear
5:33 PM 49.8 °F - 25.7 °F 39% 29.82 in 10.0 mi SW 13.8 mph - N/A   Clear
5:54 PM 48.7 °F - 25.5 °F 40% 29.83 in 10.0 mi SW 11.5 mph - N/A   Clear
6:13 PM 47.7 °F - 24.8 °F 41% 29.85 in 10.0 mi SW 11.5 mph 18.4 mph N/A   Clear
6:34 PM 45.9 °F 40.0 °F 24.4 °F 43% 29.85 in 10.0 mi WSW 12.7 mph - N/A   Clear
6:54 PM 47.3 °F - 24.3 °F 40% 29.86 in 10.0 mi SW 10.4 mph - N/A   Clear
7:13 PM 47.3 °F - 24.1 °F 40% 29.86 in 10.0 mi WSW 11.5 mph - N/A   Clear
7:34 PM 46.4 °F 41.5 °F 24.6 °F 42% 29.87 in 10.0 mi WSW 10.4 mph - N/A   Clear
7:54 PM 46.4 °F 42.4 °F 24.6 °F 42% 29.87 in 10.0 mi West 8.1 mph - N/A   Clear
8:13 PM 45.9 °F 42.3 °F 23.9 °F 42% 29.87 in 10.0 mi WSW 6.9 mph - N/A   Clear
8:34 PM 42.8 °F 40.1 °F 24.8 °F 49% 29.88 in 10.0 mi SW 4.6 mph - N/A   Clear
8:54 PM 41.9 °F 39.0 °F 24.4 °F 50% 29.89 in 10.0 mi SSW 4.6 mph - N/A   Clear
9:13 PM 42.8 °F 40.1 °F 25.2 °F 50% 29.90 in 10.0 mi SW 4.6 mph - N/A   Clear
9:34 PM 41.4 °F 38.4 °F 25.2 °F 53% 29.90 in 10.0 mi WSW 4.6 mph - N/A   Clear
9:54 PM 42.6 °F 40.9 °F 25.3 °F 51% 29.90 in 10.0 mi SW 3.5 mph - N/A   Clear
10:13 PM 41.9 °F 39.0 °F 25.3 °F 52% 29.90 in 10.0 mi WSW 4.6 mph - N/A   Scattered Clouds
10:34 PM 40.8 °F 36.9 °F 26.1 °F 56% 29.90 in 10.0 mi West 5.8 mph - N/A   Overcast
10:54 PM 40.8 °F 38.8 °F 27.0 °F 58% 29.92 in 10.0 mi SW 3.5 mph - N/A   Overcast
11:13 PM 40.1 °F - 27.5 °F 61% 29.92 in 10.0 mi Calm Calm - N/A   Overcast
11:34 PM 39.0 °F 36.8 °F 29.5 °F 69% 29.92 in 10.0 mi NNW 3.5 mph - N/A Rain Light Rain
11:54 PM 39.6 °F 36.3 °F 30.4 °F 70% 29.92 in 10.0 mi WNW 4.6 mph - N/A Rain Light Rain